Regional Weather Roundup
Issued by NWS

Home | Current Version | Previous Version | Text Only | Print | Product List | Glossary Off
Versions: 1 2 3 4 5 6 7 8 9 10 11 12 13 14 15 16 17 18 19 20 21 22 23 24 25 26 27 28 29 30 31 32 33 34 35 36 37 38 39 40 41 42 43 44 45 46 47 48 49 50

000
ASUS43 KTOP 251759
RWRKS

WEATHER ROUNDUP FOR KANSAS
NATIONAL WEATHER SERVICE GOODLAND KS
1200 PM CST THU DEC 25 2014

NOTE:  "FAIR" INDICATES FEW OR NO CLOUDS BELOW 12,000 FEET WITH NO
SIGNIFICANT WEATHER AND/OR OBSTRUCTIONS TO VISIBILITY.

KSZ001>006-013>018-027>032-041>047-251900-
NORTHWEST KANSAS

CITY           SKY/WX    TMP DP  RH WIND       PRES   REMARKS
GOODLAND       SUNNY     41  25  53 N7        29.43F
6HR MIN TEMP:  27; 6HR MAX TEMP:  41;

HAYS           MOSUNNY   46  23  39 SW17      29.47F
HILL CITY      SUNNY     43  23  45 SW6       29.45F
6HR MIN TEMP:  27; 6HR MAX TEMP:  43;

RUSSELL        SUNNY     47  26  44 S24G30    29.48F
6HR MIN TEMP:  31; 6HR MAX TEMP:  47;

$$

KSZ061>065-074>080-084>089-251900-
SOUTHWEST KANSAS

CITY           SKY/WX    TMP DP  RH WIND       PRES   REMARKS
DODGE CITY     SUNNY     54  21  27 S21       29.51F
6HR MIN TEMP:  30; 6HR MAX TEMP:  54;

ELKHART          N/A     63  23  21 SW17        N/A
GARDEN CITY    SUNNY     51  26  37 S13       29.46F
6HR MIN TEMP:  24; 6HR MAX TEMP:  51;

GREAT BEND     MOSUNNY   48  27  43 S22G31    29.51F
LIBERAL        CLOUDY    48  23  37 SW18      29.54F
$$

KSZ066>073-081>083-090>101-251900-
SOUTHEAST KANSAS

CITY           SKY/WX    TMP DP  RH WIND       PRES   REMARKS
CHANUTE        SUNNY     51  30  44 S28G41    29.78F
6HR MIN TEMP:  34; 6HR MAX TEMP:  51;

COFFEYVILLE    SUNNY     51  30  44 S26G37    29.82F
6HR MIN TEMP:  33; 6HR MAX TEMP:  51;

HUTCHINSON     SUNNY     50  27  40 S29G36    29.58F
6HR MIN TEMP:  33; 6HR MAX TEMP:  50;

NEWTON         SUNNY     48  27  43 S31G39    29.62F
PARSONS        SUNNY     50  30  46 S21G31    29.82F
6HR MIN TEMP:  34; 6HR MAX TEMP:  51;

WICHITA INTL   MOSUNNY   51  27  39 S29G40    29.63F
6HR MIN TEMP:  35; 6HR MAX TEMP:  51;

WICHITA JABRA  MOSUNNY   50  26  39 S31G40    29.63F
6HR MIN TEMP:  35; 6HR MAX TEMP:  51;

WINFIELD       MOSUNNY   52  29  41 S25G37    29.70F
6HR MIN TEMP:  37; 6HR MAX TEMP:  52;

$$

KSZ007>012-019>026-033>040-048>060-102>105-251900-
NORTHEAST KANSAS

CITY           SKY/WX    TMP DP  RH WIND       PRES   REMARKS
CONCORDIA      SUNNY     45  28  51 S17G31    29.55F
6HR MIN TEMP:  33; 6HR MAX TEMP:  45;

EMPORIA        SUNNY     48  30  49 S25G36    29.67F
6HR MIN TEMP:  29; 6HR MAX TEMP:  48;

LAWRENCE       SUNNY     50  30  46 S18G25    29.74F
6HR MIN TEMP:  29; 6HR MAX TEMP:  50;

MANHATTAN      SUNNY     51  29  42 S21G26    29.61F
6HR MIN TEMP:  36; 6HR MAX TEMP:  51;

OLATHE IND     SUNNY     48  30  49 S21G31    29.76F
6HR MIN TEMP:  30; 6HR MAX TEMP:  48;

OLATHE EXE     SUNNY     48  28  46 S20G36    29.76F
6HR MIN TEMP:  30; 6HR MAX TEMP:  48;

SALINA         SUNNY     48  29  47 S20G32    29.57F
6HR MIN TEMP:  35; 6HR MAX TEMP:  48;

TOPEKA BILLARD SUNNY     51  29  42 S17G29    29.70F
6HR MIN TEMP:  35; 6HR MAX TEMP:  51;

TOPEKA FORBES  SUNNY     50  30  46 S23G30    29.68F
6HR MIN TEMP:  33; 6HR MAX TEMP:  50;

$$


USA.gov is the U.S. government's official web portal to all federal, state and local government web resources and services.